Location: La Pernelle
(49.6188°N, 1.2999°W)
Time: 11:00:20
(UTC+00:00)

Cosmos 1455 - Pass Details

Date: 12 June 2021
Orbit: 496 x 522 km, 82.5° (Epoch: 27 July)

Event Time Altitude Azimuth Distance (km) Brightness Sun altitude
Rises 23:02:13 0° 358° (N) 2,661 7.4 -15.8°
Reaches altitude 10° 23:04:34 10° 9° (N) 1,764 6.0 -15.9°
Maximum altitude 23:08:02 31° 72° (ENE) 938 3.5 -16.1°
Enters shadow 23:09:47 21° 117° (ESE) 1,200 3.7 -16.1°
